EW8555 Weather Reports


time (UTC)temp
C
wind
direction
speed
KPH
gust
KPH
rain 1hr
cm
rain 24hr
cm
rain mn
cm
humidity
%
barometer
mb
20260902203005 17 281 3.2 6.4 0.00 0.00 0.00 77 1016.5
20260902201504 17 283 1.6 3.2 0.00 0.00 0.00 77 1016.5
20260902200004 17 289 1.6 4.8 0.00 0.00 0.00 76 1016.4
20260902194502 18 290 0.0 1.6 0.00 0.00 0.00 73 1016.4
20260902193002 18 290 0.0 1.6 0.00 0.00 0.00 71 1016.4
20260902191502 18 289 1.6 4.8 0.00 0.00 0.00 70 1016.5
20260902190003 18 290 0.0 1.6 0.00 0.00 0.00 69 1016.6
20260902184501 19 290 0.0 3.2 0.00 0.00 0.00 68 1016.6
20260902183111 19 290 0.0 4.8 0.00 0.00 0.00 66 1016.4
20260902181612 20 290 0.0 0.0 0.00 0.00 0.00 66 1016.3
20260902180059 20 290 1.6 3.2 0.00 0.00 0.00 65 1016.1
20260902174600 20 290 1.6 3.2 0.00 0.00 0.00 64 1016.0
20260902173116 21 290 1.6 3.2 0.00 0.00 0.00 61 1015.9
20260902171558 21 290 1.6 3.2 0.00 0.00 0.00 58 1015.8
20260902170057 21 290 1.6 4.8 0.00 0.00 0.00 57 1015.8
20260902164603 21 263 1.6 8.0 0.00 0.00 0.00 56 1015.9
20260902163057 22 229 0.0 9.7 0.00 0.00 0.00 54 1016.0
20260902161555 22 248 8.0 17.7 0.00 0.00 0.00 53 1015.9
20260902160054 22 225 3.2 14.5 0.00 0.00 0.00 53 1016.0
20260902154552 22 249 4.8 14.5 0.00 0.00 0.00 53 1016.1
20260902153059 22 213 6.4 17.7 0.00 0.00 0.00 53 1016.2
20260902151548 22 241 4.8 11.3 0.00 0.00 0.00 63 1016.2
20260902150045 22 206 3.2 8.0 0.00 0.00 0.00 56 1016.4
20260902144545 21 225 0.0 8.0 0.00 0.03 0.00 57 1016.4
20260902143046 21 211 4.8 9.7 0.00 0.03 0.00 56 1016.5
20260902141542 21 251 3.2 14.5 0.00 0.03 0.00 56 1016.7
20260902140041 22 209 8.0 16.1 0.00 0.03 0.00 55 1016.7
20260902134537 21 240 4.8 19.3 0.00 0.05 0.00 57 1016.7
20260902133037 21 237 3.2 12.9 0.00 0.05 0.00 56 1016.9
20260902131535 21 251 3.2 6.4 0.00 0.05 0.00 56 1017.0
20260902130033 21 236 1.6 12.9 0.00 0.05 0.00 55 1017.1
20260902124533 21 248 4.8 16.1 0.00 0.05 0.00 55 1017.1
20260902123032 21 329 4.8 16.1 0.00 0.05 0.00 56 1017.2
20260902121531 21 242 3.2 12.9 0.00 0.05 0.00 55 1017.3
20260902120030 21 234 4.8 12.9 0.00 0.05 0.00 57 1017.4
20260902114528 21 242 4.8 14.5 0.00 0.05 0.00 60 1017.5
20260902113027 20 308 4.8 12.9 0.00 0.05 0.00 60 1017.6
20260902111526 20 288 3.2 16.1 0.00 0.05 0.00 63 1017.6
20260902110036 20 307 3.2 16.1 0.00 0.05 0.00 62 1017.8
20260902104543 20 229 3.2 12.9 0.00 0.08 0.00 62 1017.8
20260902103044 21 240 6.4 14.5 0.00 0.08 0.00 61 1017.9
20260902101522 20 200 3.2 17.7 0.00 0.08 0.00 64 1017.9
20260902100021 20 190 12.9 24.1 0.00 0.08 0.00 65 1018.0
20260902094519 20 281 8.0 20.9 0.00 0.08 0.00 66 1018.1
20260902093020 20 201 4.8 22.5 0.00 0.08 0.00 67 1018.1
20260902091517 20 207 8.0 16.1 0.00 0.08 0.00 70 1018.2
20260902090024 20 190 8.0 14.5 0.00 0.08 0.00 71 1018.2
20260902084512 18 199 4.8 14.5 0.00 0.08 0.00 73 1018.2
20260902083010 18 221 3.2 12.9 0.00 0.08 0.00 73 1018.2
20260902081510 18 267 4.8 16.1 0.00 0.08 0.00 72 1018.4
20260902080007 18 260 4.8 9.7 0.00 0.08 0.00 74 1018.3
20260902074504 18 205 1.6 8.0 0.00 0.08 0.00 75 1018.2
20260902073001 17 169 1.6 8.0 0.00 0.08 0.00 77 1018.1
20260902071557 17 227 1.6 6.4 0.00 0.08 0.00 80 1018.2
20260902070054 16 227 0.0 4.8 0.00 0.08 0.00 85 1018.0
20260902064602 15 227 0.0 8.0 0.00 0.08 0.00 88 1018.2
20260902063107 15 209 3.2 6.4 0.00 0.08 0.00 88 1018.3
20260902061611 14 211 1.6 4.8 0.00 0.08 0.00 90 1018.2
20260902060052 14 211 0.0 4.8 0.00 0.08 0.00 91 1018.2
20260902054553 13 244 0.0 4.8 0.00 0.08 0.00 93 1018.3
20260902053051 13 244 0.0 4.8 0.00 0.08 0.00 94 1018.1
20260902051602 12 244 0.0 4.8 0.00 0.08 0.00 94 1018.3
20260902050051 12 275 0.0 3.2 0.00 0.08 0.00 94 1018.3
20260902044606 12 276 0.0 6.4 0.00 0.08 0.00 94 1018.4
20260902043048 12 247 0.0 6.4 0.00 0.08 0.00 94 1018.4
20260902041546 12 244 1.6 6.4 0.00 0.08 0.00 94 1018.1
20260902040042 12 234 0.0 4.8 0.00 0.08 0.00 94 1017.8
20260902034540 13 227 1.6 6.4 0.00 0.08 0.00 94 1017.6
20260902033039 12 224 1.6 6.4 0.00 0.08 0.00 93 1017.5
20260902031552 13 205 1.6 4.8 0.00 0.08 0.00 94 1017.4
20260902030037 13 244 3.2 6.4 0.00 0.08 0.00 92 1017.4
20260902024542 13 244 0.0 4.8 0.00 0.08 0.00 92 1017.4
20260902023033 13 244 0.0 3.2 0.00 0.08 0.00 91 1017.4
20260902021531 13 244 0.0 3.2 0.00 0.08 0.00 91 1017.6
20260902020030 13 244 0.0 0.0 0.00 0.08 0.00 91 1017.6
20260902014536 13 244 0.0 0.0 0.00 0.08 0.00 91 1017.7
20260902013031 13 244 0.0 3.2 0.00 0.08 0.00 90 1017.7
20260902011530 13 244 0.0 3.2 0.00 0.08 0.00 90 1017.7
20260902010029 14 244 0.0 4.8 0.00 0.08 0.00 89 1017.7
20260902004523 14 268 0.0 6.4 0.00 0.08 0.00 89 1017.6
20260902003020 15 243 3.2 6.4 0.00 0.08 0.00 88 1017.5
20260902001518 15 238 0.0 9.7 0.00 0.08 0.00 88 1017.4
20260902000016 15 238 3.2 9.7 0.00 0.08 0.00 88 1017.3
20260901234514 15 225 3.2 8.0 0.00 0.08 0.00 88 1017.2
20260901233013 15 251 3.2 11.3 0.00 0.08 0.00 87 1017.1
20260901231516 15 247 1.6 8.0 0.00 0.08 0.00 86 1017.2
20260901230010 16 259 4.8 8.0 0.00 0.08 0.00 86 1017.2
20260901224512 16 242 3.2 8.0 0.00 0.08 0.00 86 1017.2
20260901223007 16 246 4.8 8.0 0.00 0.08 0.00 85 1017.1
20260901221506 16 234 1.6 8.0 0.00 0.08 0.00 85 1017.2
20260901220003 16 255 3.2 9.7 0.00 0.08 0.00 84 1017.1
20260901214501 16 240 3.2 11.3 0.00 0.08 0.08 83 1017.0
20260901213003 17 248 4.8 11.3 0.00 0.08 0.08 82 1017.0
20260901211503 17 240 3.2 9.7 0.00 0.08 0.08 81 1017.0
20260901204559 17 254 3.2 9.7 0.00 0.08 0.08 81 1016.7